Hourly Data Report for October 31, 2015

All times are specified in Local Standard Time (LST). Add 1 hour to adjust for Daylight Saving Time where and when it is observed.

PETAWAWA AWOS 2
ONTARIO

45°57'00.000" N
77°19'00.000" W
130.10 m
6106396
71625
YWA

Download Data

Hourly Data (October 2015)
Hourly Data Report for October 31, 2015
Temp Definition
°C
Dew Point Temp Definition
°C
Rel Hum Definition
%
Wind Dir Definition
10's deg

Wind Spd Definition
km/h
Visibility Definition
km
Stn Press Definition
kPa
Hmdx Definition


Wind Chill Definition


Weather Definition


TIME
00:00 -4.1 -5.2 92 24 4 14.5 100.43   -6 LegendNANA
01:00 -4.3 -5.2 93 25 4 14.5 100.44   -6 LegendNANA
02:00 -3.8 -5.3 89 26 4 14.5 100.47   -5 LegendNANA
03:00 -4.9 -5.9 93 26 4 14.5 100.43   -7 LegendNANA
04:00 -4.1 -5.2 92   0 14.5 100.47     LegendNANA
05:00 -4.1 -5.3 91   0 14.5 100.51     LegendNANA
06:00 -4.4 -5.7 91 23 4 14.5 100.47   -6 LegendNANA
07:00 -3.2 -3.9 95   0 0.2 100.54     LegendNANA
08:00 -0.3 -0.6 98 12 4 14.5 100.53   -2 LegendNANA
09:00 0.9 0.4 96 15 11 14.5 100.48     LegendNANA
10:00 1.9 -0.1 87 14 9 14.5 100.43     LegendNANA
11:00 2.8 0.6 85 14 7 14.5 100.37     LegendNANA
12:00 3.5 1.5 87 13 11 14.5 100.32     LegendNANA
13:00 4.5 1.9 83 15 9 14.5 100.26     LegendNANA
14:00 4.6 1.9 83 12 11 14.5 100.16     LegendNANA
15:00 4.8 1.9 82 13 11 14.5 100.16     LegendNANA
16:00 5.3 2.3 81 12 11 14.5 100.11     Drizzle
17:00 5.4 2.1 79 13 15 14.5 100.08     LegendNANA
18:00 5.2 2.1 80 13 13 14.5 100.06     Rain
19:00 5.2 2.5 83 12 15 14.5 99.95     Drizzle
20:00 5.1 2.2 82 14 15 14.5 99.84     Rain
21:00 5.1 2.4 83 13 19 14.5 99.75     Drizzle
22:00 5.0 2.3 83 12 13 14.5 99.72     Rain
23:00 4.8 2.7 86 14 15 14.5 99.64     Rain

Notes on Data Quality.

Legend

  • E = Estimated
  • M = Missing
  • NA = Not Available
  • ‡ = Partner data that is not subject to review by the National Climate Archives
Date modified: